QPF
0.00 0.00 0.00 0.00 0.00 0.00 0.00 0.00 0.00 0.00 0.00 0.00 0.00 0.00 0.00 0.00 0.00 0.00 0.00 0.00 0.00 0.00 0.00 0.00 0.01 0.01 0.01 0.00 0.00 0.00 0.00 0.00 0.00 0.00 0.00 0.00 0.00 0.01 0.01 0.02 0.06 0.03 0.01
0.00 0.00 0.00 0.00 0.00 0.00 0.00 0.00 0.00 0.00 0.00 0.00 0.00 0.00 0.00 0.00 0.00 0.00 0.00 0.00 0.00 0.00 0.00 0.00 0.01 0.01 0.00 0.00 0.00 0.00 0.00 0.00 0.00 0.00 0.00 0.00 0.00 0.00 0.01 0.02 0.08 0.04 0.01
0.00 0.00 0.00 0.00 0.00 0.00 0.00 0.00 0.00 0.00 0.00 0.00 0.00 0.00 0.00 0.00 0.00 0.00 0.00 0.00 0.00 0.00 0.00 0.00 0.00 0.00 0.00 0.00 0.00 0.00 0.00 0.00 0.00 0.00 0.03 0.02 0.00 0.00 0.00 0.02 0.05 0.02 0.01
0.00 0.00 0.00 0.00 0.00 0.00 0.00 0.00 0.00 0.00 0.00 0.00 0.00 0.00 0.00 0.00 0.00 0.00 0.00 0.00 0.00 0.00 0.00 0.00 0.00 0.00 0.00 0.00 0.00 0.00 0.00 0.00 0.00 0.02 0.12 0.05 0.01 0.00 0.00 0.01 0.01 0.01 0.01
0.00 0.00 0.00 0.00 0.00 0.00 0.00 0.00 0.00 0.00 0.00 0.00 0.00 0.00 0.00 0.00 0.00 0.01 0.01 0.00 0.00 0.01 0.00 0.00 0.00 0.00 0.00 0.00 0.00 0.00 0.00 0.00 0.00 0.02 0.06 0.05 0.04 0.01 0.00 0.00 0.01 0.01 0.01
0.00 0.00 0.00 0.00 0.00 0.00 0.00 0.00 0.00 0.00 0.00 0.00 0.00 0.00 0.00 0.00 0.00 0.00 0.00 0.00 0.00 0.01 0.00 0.00 0.00 0.00 0.00 0.00 0.00 0.00 0.00 0.00 0.00 0.02 0.03 0.03 0.03 0.01 0.00 0.00 0.00 0.01 0.01
0.00 0.00 0.00 0.00 0.00 0.00 0.00 0.00 0.00 0.00 0.00 0.00 0.00 0.00 0.00 0.00 0.00 0.00 0.00 0.00 0.00 0.00 0.00 0.00 0.00 0.00 0.00 0.00 0.00 0.00 0.00 0.00 0.01 0.02 0.01 0.03 0.03 0.01 0.01 0.01 0.01 0.01 0.01
0.00 0.00 0.00 0.00 0.00 0.00 0.00 0.00 0.00 0.00 0.00 0.00 0.00 0.00 0.00 0.00 0.00 0.00 0.00 0.00 0.00 0.00 0.00 0.00 0.00 0.00 0.00 0.00 0.00 0.00 0.00 0.00 0.00 0.01 0.00 0.02 0.01 0.00 0.01 0.02 0.02 0.02 0.01
0.00 0.00 0.00 0.00 0.00 0.00 0.00 0.00 0.00 0.00 0.00 0.00 0.00 0.00 0.00 0.00 0.00 0.00 0.00 0.00 0.00 0.00 0.00 0.00 0.00 0.00 0.00 0.00 0.00 0.00 0.00 0.00 0.00 0.00 0.00 0.01 0.01 0.00 0.01 0.01 0.01 0.01 0.01
0.00 0.00 0.00 0.00 0.00 0.00 0.00 0.00 0.00 0.00 0.00 0.00 0.00 0.00 0.00 0.00 0.00 0.00 0.00 0.00 0.00 0.00 0.01 0.01 0.01 0.01 0.01 0.01 0.01 0.00 0.00 0.00 0.00 0.00 0.00 0.00 0.00 0.00 0.01 0.01 0.02 0.01 0.01
0.00 0.00 0.00 0.00 0.00 0.00 0.00 0.00 0.00 0.00 0.00 0.00 0.01 0.00 0.00 0.00 0.01 0.01 0.01 0.01 0.01 0.01 0.01 0.01 0.01 0.02 0.02 0.01 0.01 0.02 0.01 0.00 0.00 0.00 0.00 0.00 0.01 0.01 0.00 0.01 0.01 0.03 0.03
0.00 0.00 0.00 0.00 0.00 0.00 0.00 0.00 0.01 0.01 0.01 0.01 0.01 0.02 0.02 0.02 0.02 0.01 0.03 0.04 0.03 0.02 0.02 0.02 0.03 0.02 0.02 0.02 0.05 0.09 0.03 0.01 0.01 0.00 0.01 0.01 0.01 0.01 0.00 0.01 0.01 0.02 0.03
0.00 0.00 0.00 0.00 0.00 0.00 0.00 0.01 0.01 0.01 0.04 0.05 0.05 0.07 0.08 0.07 0.04 0.02 0.04 0.07 0.06 0.05 0.04 0.07 0.06 0.03 0.04 0.06 0.10 0.12 0.07 0.06 0.04 0.04 0.06 0.08 0.05 0.04 0.02 0.01 0.01 0.01 0.02
0.00 0.00 0.00 0.00 0.00 0.01 0.01 0.02 0.02 0.02 0.04 0.05 0.07 0.10 0.12 0.12 0.09 0.07 0.08 0.10 0.13 0.12 0.11 0.10 0.11 0.10 0.12 0.14 0.14 0.16 0.12 0.12 0.08 0.12 0.19 0.22 0.13 0.06 0.03 0.01 0.01 0.01 0.01
0.00 0.01 0.00 0.01 0.02 0.03 0.04 0.05 0.02 0.03 0.04 0.06 0.10 0.11 0.12 0.14 0.13 0.13 0.12 0.12 0.13 0.16 0.17 0.14 0.13 0.15 0.18 0.21 0.18 0.18 0.19 0.19 0.13 0.10 0.11 0.13 0.09 0.06 0.04 0.03 0.02 0.01 0.01
0.01 0.01 0.02 0.02 0.03 0.05 0.07 0.08 0.07 0.05 0.05 0.05 0.04 0.07 0.11 0.13 0.16 0.17 0.17 0.17 0.13 0.11 0.15 0.20 0.17 0.23 0.24 0.20 0.16 0.20 0.20 0.23 0.23 0.16 0.14 0.15 0.09 0.05 0.03 0.02 0.03 0.03 0.03
0.01 0.03 0.04 0.03 0.04 0.05 0.08 0.10 0.10 0.07 0.06 0.06 0.07 0.07 0.11 0.14 0.18 0.20 0.20 0.19 0.17 0.16 0.20 0.20 0.18 0.21 0.17 0.15 0.13 0.15 0.18 0.16 0.16 0.12 0.12 0.16 0.14 0.08 0.04 0.03 0.03 0.03 0.05
0.03 0.04 0.04 0.04 0.04 0.06 0.07 0.08 0.09 0.07 0.06 0.06 0.07 0.10 0.12 0.14 0.16 0.21 0.23 0.20 0.20 0.20 0.21 0.21 0.17 0.17 0.16 0.14 0.11 0.08 0.12 0.16 0.12 0.11 0.10 0.11 0.13 0.10 0.08 0.04 0.03 0.03 0.03
0.05 0.05 0.05 0.04 0.04 0.04 0.05 0.06 0.06 0.08 0.07 0.06 0.07 0.10 0.12 0.14 0.17 0.20 0.22 0.21 0.21 0.23 0.23 0.17 0.18 0.21 0.18 0.15 0.10 0.07 0.08 0.11 0.11 0.08 0.07 0.07 0.09 0.08 0.08 0.08 0.04 0.03 0.03
0.03 0.04 0.04 0.03 0.03 0.02 0.03 0.04 0.04 0.04 0.04 0.05 0.06 0.07 0.10 0.14 0.16 0.21 0.21 0.23 0.24 0.24 0.23 0.18 0.17 0.18 0.14 0.10 0.06 0.05 0.07 0.06 0.07 0.05 0.04 0.04 0.06 0.05 0.04 0.06 0.07 0.03 0.02
0.01 0.01 0.01 0.01 0.01 0.01 0.02 0.02 0.03 0.04 0.05 0.05 0.06 0.06 0.09 0.13 0.17 0.23 0.24 0.28 0.29 0.28 0.25 0.20 0.18 0.15 0.10 0.07 0.06 0.04 0.04 0.04 0.03 0.03 0.03 0.03 0.03 0.03 0.03 0.04 0.06 0.04 0.03
0.00 0.01 0.01 0.01 0.01 0.01 0.02 0.02 0.03 0.03 0.03 0.05 0.06 0.06 0.08 0.12 0.19 0.23 0.26 0.31 0.33 0.30 0.25 0.22 0.21 0.14 0.10 0.08 0.06 0.05 0.04 0.04 0.03 0.02 0.02 0.03 0.02 0.04 0.04 0.04 0.06 0.06 0.05
0.00 0.00 0.00 0.00 0.00 0.01 0.01 0.02 0.02 0.02 0.02 0.03 0.04 0.05 0.06 0.07 0.11 0.16 0.21 0.24 0.28 0.27 0.25 0.23 0.21 0.16 0.10 0.07 0.07 0.07 0.06 0.05 0.05 0.03 0.03 0.02 0.03 0.03 0.03 0.03 0.04 0.06 0.06
0.00 0.00 0.00 0.00 0.00 0.00 0.00 0.01 0.00 0.01 0.01 0.01 0.02 0.03 0.04 0.06 0.08 0.11 0.14 0.17 0.19 0.19 0.20 0.19 0.17 0.17 0.13 0.09 0.08 0.08 0.07 0.07 0.08 0.08 0.05 0.03 0.03 0.04 0.03 0.03 0.02 0.04 0.04
0.00 0.00 0.00 0.00 0.00 0.00 0.00 0.00 0.00 0.00 0.00 0.01 0.01 0.02 0.02 0.04 0.06 0.07 0.09 0.12 0.15 0.16 0.17 0.16 0.17 0.16 0.15 0.13 0.11 0.11 0.11 0.09 0.06 0.07 0.09 0.07 0.04 0.03 0.02 0.04 0.04 0.02 0.03
0.00 0.00 0.00 0.00 0.01 0.01 0.01 0.01 0.01 0.01 0.01 0.00 0.01 0.01 0.02 0.03 0.04 0.05 0.06 0.08 0.10 0.11 0.15 0.17 0.18 0.17 0.15 0.16 0.13 0.12 0.13 0.11 0.08 0.06 0.06 0.06 0.05 0.03 0.02 0.02 0.04 0.04 0.03
MSLP
1006.69 1006.94 1007.31 1007.81 1008.39 1008.98 1009.53 1009.97 1010.31 1010.54 1010.72 1010.90 1011.12 1011.42 1011.78 1012.19 1012.59 1012.95 1013.23 1013.42 1013.55 1013.63 1013.71 1013.82 1013.97 1014.16 1014.37 1014.56 1014.71 1014.82 1014.88 1014.92 1014.97 1015.05 1015.17 1015.33 1015.53 1015.72 1015.90 1016.04 1016.16 1016.25 1016.36
1006.56 1006.87 1007.31 1007.87 1008.49 1009.11 1009.64 1010.06 1010.35 1010.54 1010.70 1010.87 1011.12 1011.47 1011.89 1012.35 1012.80 1013.18 1013.45 1013.63 1013.73 1013.79 1013.85 1013.96 1014.11 1014.31 1014.51 1014.70 1014.84 1014.93 1014.98 1015.00 1015.05 1015.13 1015.28 1015.48 1015.71 1015.94 1016.16 1016.33 1016.46 1016.57 1016.67
1006.34 1006.71 1007.23 1007.87 1008.55 1009.20 1009.75 1010.15 1010.42 1010.60 1010.74 1010.93 1011.20 1011.57 1012.01 1012.49 1012.94 1013.30 1013.55 1013.69 1013.77 1013.81 1013.88 1014.00 1014.18 1014.40 1014.62 1014.81 1014.94 1015.01 1015.03 1015.04 1015.08 1015.18 1015.35 1015.58 1015.85 1016.13 1016.38 1016.59 1016.75 1016.87 1017.00
1006.09 1006.53 1007.13 1007.85 1008.61 1009.31 1009.88 1010.30 1010.57 1010.74 1010.89 1011.08 1011.35 1011.73 1012.17 1012.63 1013.04 1013.36 1013.56 1013.67 1013.72 1013.76 1013.85 1014.00 1014.22 1014.47 1014.72 1014.91 1015.04 1015.08 1015.08 1015.07 1015.09 1015.19 1015.38 1015.64 1015.95 1016.27 1016.56 1016.81 1017.00 1017.16 1017.30
1005.86 1006.38 1007.07 1007.88 1008.71 1009.46 1010.07 1010.51 1010.78 1010.96 1011.11 1011.31 1011.59 1011.95 1012.37 1012.79 1013.14 1013.40 1013.54 1013.60 1013.63 1013.68 1013.80 1013.99 1014.26 1014.55 1014.83 1015.03 1015.14 1015.17 1015.13 1015.09 1015.09 1015.18 1015.38 1015.66 1016.00 1016.35 1016.68 1016.97 1017.19 1017.38 1017.55
1005.70 1006.30 1007.08 1007.97 1008.87 1009.67 1010.30 1010.75 1011.04 1011.22 1011.37 1011.57 1011.85 1012.20 1012.58 1012.95 1013.24 1013.43 1013.52 1013.54 1013.56 1013.62 1013.76 1014.01 1014.32 1014.66 1014.96 1015.17 1015.26 1015.26 1015.18 1015.10 1015.07 1015.15 1015.33 1015.62 1015.98 1016.36 1016.72 1017.03 1017.29 1017.51 1017.71
1005.62 1006.30 1007.17 1008.13 1009.07 1009.90 1010.54 1010.98 1011.26 1011.44 1011.60 1011.80 1012.07 1012.41 1012.76 1013.08 1013.32 1013.46 1013.50 1013.49 1013.50 1013.58 1013.76 1014.04 1014.40 1014.77 1015.09 1015.29 1015.37 1015.32 1015.21 1015.08 1015.01 1015.06 1015.22 1015.50 1015.87 1016.26 1016.64 1016.98 1017.27 1017.53 1017.76
1005.61 1006.37 1007.30 1008.31 1009.27 1010.09 1010.71 1011.13 1011.38 1011.55 1011.70 1011.90 1012.18 1012.51 1012.84 1013.14 1013.34 1013.45 1013.46 1013.43 1013.44 1013.53 1013.74 1014.06 1014.45 1014.84 1015.16 1015.36 1015.40 1015.32 1015.16 1014.99 1014.87 1014.88 1015.02 1015.29 1015.64 1016.04 1016.44 1016.80 1017.12 1017.41 1017.68
1005.66 1006.47 1007.44 1008.46 1009.40 1010.18 1010.75 1011.12 1011.33 1011.47 1011.62 1011.82 1012.10 1012.44 1012.78 1013.06 1013.26 1013.34 1013.34 1013.32 1013.33 1013.44 1013.67 1014.01 1014.41 1014.81 1015.12 1015.30 1015.32 1015.20 1014.99 1014.78 1014.62 1014.59 1014.70 1014.95 1015.30 1015.70 1016.11 1016.50 1016.85 1017.17 1017.48
1005.73 1006.57 1007.54 1008.53 1009.42 1010.14 1010.63 1010.93 1011.10 1011.20 1011.34 1011.54 1011.84 1012.19 1012.54 1012.84 1013.04 1013.13 1013.13 1013.12 1013.14 1013.25 1013.49 1013.83 1014.23 1014.62 1014.92 1015.07 1015.06 1014.92 1014.68 1014.43 1014.25 1014.19 1014.28 1014.51 1014.85 1015.26 1015.69 1016.10 1016.49 1016.85 1017.20
1005.82 1006.65 1007.59 1008.53 1009.34 1009.96 1010.37 1010.60 1010.70 1010.78 1010.90 1011.11 1011.42 1011.79 1012.16 1012.48 1012.69 1012.80 1012.81 1012.80 1012.83 1012.95 1013.17 1013.50 1013.88 1014.25 1014.52 1014.66 1014.64 1014.47 1014.23 1013.96 1013.76 1013.69 1013.76 1013.98 1014.32 1014.74 1015.20 1015.65 1016.08 1016.49 1016.88
1005.97 1006.76 1007.63 1008.47 1009.18 1009.71 1010.02 1010.18 1010.24 1010.28 1010.39 1010.61 1010.93 1011.31 1011.70 1012.03 1012.26 1012.38 1012.41 1012.40 1012.43 1012.53 1012.73 1013.03 1013.37 1013.71 1013.96 1014.08 1014.05 1013.90 1013.66 1013.40 1013.21 1013.13 1013.20 1013.42 1013.77 1014.20 1014.69 1015.18 1015.66 1016.12 1016.54
1006.22 1006.93 1007.70 1008.43 1009.03 1009.45 1009.69 1009.78 1009.80 1009.82 1009.93 1010.14 1010.46 1010.85 1011.24 1011.58 1011.81 1011.94 1011.97 1011.95 1011.96 1012.03 1012.19 1012.44 1012.74 1013.04 1013.27 1013.38 1013.37 1013.23 1013.02 1012.80 1012.62 1012.56 1012.64 1012.86 1013.22 1013.67 1014.18 1014.72 1015.24 1015.74 1016.21
1006.60 1007.21 1007.86 1008.48 1008.96 1009.29 1009.46 1009.51 1009.50 1009.51 1009.60 1009.81 1010.12 1010.49 1010.86 1011.18 1011.41 1011.52 1011.54 1011.51 1011.48 1011.51 1011.62 1011.81 1012.05 1012.31 1012.51 1012.62 1012.63 1012.54 1012.38 1012.20 1012.07 1012.03 1012.12 1012.35 1012.71 1013.17 1013.70 1014.26 1014.82 1015.36 1015.86
1007.15 1007.65 1008.17 1008.66 1009.05 1009.29 1009.41 1009.43 1009.41 1009.41 1009.49 1009.67 1009.94 1010.27 1010.61 1010.89 1011.08 1011.17 1011.17 1011.11 1011.05 1011.02 1011.07 1011.19 1011.37 1011.57 1011.74 1011.86 1011.90 1011.86 1011.76 1011.64 1011.56 1011.56 1011.66 1011.89 1012.24 1012.69 1013.22 1013.79 1014.37 1014.94 1015.47
1007.87 1008.24 1008.64 1009.01 1009.30 1009.49 1009.57 1009.58 1009.55 1009.55 1009.60 1009.74 1009.96 1010.22 1010.49 1010.71 1010.86 1010.91 1010.88 1010.79 1010.68 1010.60 1010.58 1010.62 1010.73 1010.87 1011.02 1011.14 1011.21 1011.22 1011.19 1011.15 1011.12 1011.15 1011.26 1011.48 1011.80 1012.23 1012.73 1013.28 1013.86 1014.44 1014.99
1008.67 1008.93 1009.21 1009.48 1009.70 1009.84 1009.91 1009.91 1009.88 1009.87 1009.89 1009.97 1010.11 1010.29 1010.47 1010.62 1010.71 1010.72 1010.66 1010.54 1010.39 1010.26 1010.17 1010.14 1010.17 1010.25 1010.36 1010.47 1010.57 1010.63 1010.67 1010.69 1010.72 1010.78 1010.90 1011.09 1011.38 1011.75 1012.20 1012.71 1013.27 1013.83 1014.38
1009.49 1009.64 1009.83 1010.01 1010.17 1010.28 1010.34 1010.35 1010.32 1010.29 1010.26 1010.28 1010.33 1010.41 1010.49 1010.56 1010.60 1010.57 1010.48 1010.35 1010.18 1010.01 1009.86 1009.76 1009.71 1009.72 1009.78 1009.87 1009.98 1010.08 1010.17 1010.25 1010.33 1010.42 1010.54 1010.71 1010.94 1011.25 1011.63 1012.08 1012.58 1013.12 1013.66
1010.20 1010.28 1010.38 1010.50 1010.62 1010.72 1010.78 1010.79 1010.76 1010.71 1010.64 1010.58 1010.53 1010.51 1010.50 1010.50 1010.48 1010.43 1010.34 1010.20 1010.02 1009.83 1009.63 1009.47 1009.34 1009.28 1009.28 1009.34 1009.43 1009.56 1009.69 1009.82 1009.93 1010.04 1010.16 1010.30 1010.48 1010.71 1011.02 1011.40 1011.84 1012.33 1012.84
1010.73 1010.75 1010.80 1010.87 1010.96 1011.06 1011.12 1011.15 1011.13 1011.05 1010.94 1010.81 1010.68 1010.56 1010.47 1010.40 1010.34 1010.28 1010.20 1010.08 1009.91 1009.71 1009.49 1009.27 1009.08 1008.95 1008.88 1008.88 1008.95 1009.07 1009.22 1009.37 1009.52 1009.64 1009.75 1009.87 1010.00 1010.17 1010.41 1010.71 1011.09 1011.53 1012.01
1011.01 1010.99 1011.01 1011.06 1011.14 1011.24 1011.33 1011.37 1011.36 1011.27 1011.13 1010.93 1010.73 1010.54 1010.38 1010.26 1010.19 1010.13 1010.07 1009.99 1009.86 1009.67 1009.44 1009.19 1008.94 1008.73 1008.58 1008.52 1008.54 1008.63 1008.77 1008.93 1009.09 1009.22 1009.33 1009.42 1009.52 1009.65 1009.83 1010.07 1010.40 1010.79 1011.24
1011.03 1011.00 1011.00 1011.05 1011.14 1011.25 1011.36 1011.43 1011.44 1011.36 1011.19 1010.96 1010.71 1010.46 1010.25 1010.11 1010.02 1009.99 1009.97 1009.93 1009.84 1009.69 1009.47 1009.20 1008.91 1008.64 1008.42 1008.29 1008.25 1008.29 1008.39 1008.54 1008.68 1008.81 1008.92 1009.00 1009.08 1009.18 1009.32 1009.53 1009.82 1010.18 1010.60
1010.82 1010.80 1010.80 1010.86 1010.96 1011.10 1011.25 1011.35 1011.38 1011.32 1011.16 1010.91 1010.63 1010.35 1010.12 1009.95 1009.87 1009.86 1009.88 1009.90 1009.87 1009.76 1009.57 1009.31 1009.00 1008.68 1008.41 1008.20 1008.09 1008.07 1008.12 1008.22 1008.34 1008.45 1008.55 1008.62 1008.69 1008.78 1008.92 1009.11 1009.39 1009.73 1010.14
1010.46 1010.46 1010.48 1010.55 1010.67 1010.83 1011.01 1011.15 1011.22 1011.19 1011.05 1010.81 1010.53 1010.23 1009.98 1009.81 1009.74 1009.74 1009.80 1009.87 1009.90 1009.85 1009.71 1009.47 1009.17 1008.84 1008.52 1008.26 1008.08 1007.99 1007.97 1008.02 1008.09 1008.17 1008.25 1008.32 1008.39 1008.48 1008.62 1008.83 1009.11 1009.46 1009.86
1010.06 1010.07 1010.10 1010.18 1010.31 1010.50 1010.70 1010.88 1010.99 1011.00 1010.89 1010.68 1010.40 1010.11 1009.85 1009.67 1009.59 1009.61 1009.69 1009.80 1009.88 1009.90 1009.82 1009.63 1009.37 1009.05 1008.73 1008.43 1008.20 1008.05 1007.97 1007.94 1007.96 1008.00 1008.04 1008.10 1008.17 1008.27 1008.43 1008.66 1008.95 1009.32 1009.73
1009.68 1009.71 1009.74 1009.82 1009.95 1010.14 1010.36 1010.56 1010.71 1010.76 1010.69 1010.50 1010.24 1009.95 1009.69 1009.50 1009.41 1009.42 1009.51 1009.64 1009.77 1009.85 1009.84 1009.73 1009.53 1009.26 1008.96 1008.67 1008.42 1008.22 1008.08 1008.00 1007.95 1007.94 1007.94 1007.97 1008.04 1008.15 1008.32 1008.57 1008.89 1009.27 1009.70
Thickness
5859 5852 5843 5838 5833 5829 5825 5821 5816 5812 5808 5805 5801 5798 5794 5791 5788 5785 5783 5780 5778 5776 5774 5772 5770 5768 5766 5765 5763 5762 5760 5759 5758 5757 5755 5754 5752 5751 5750 5749 5749 5748 5746
5860 5849 5841 5837 5832 5827 5823 5819 5815 5810 5807 5803 5799 5796 5792 5789 5786 5783 5781 5779 5777 5775 5773 5770 5768 5767 5765 5764 5762 5760 5759 5758 5757 5756 5754 5753 5751 5750 5749 5750 5749 5746 5745
5857 5847 5839 5835 5830 5825 5821 5817 5813 5809 5805 5801 5798 5794 5791 5788 5785 5782 5779 5777 5775 5773 5771 5769 5767 5766 5764 5762 5761 5759 5758 5757 5756 5755 5754 5753 5750 5749 5748 5748 5747 5745 5744
5854 5845 5839 5832 5828 5823 5819 5815 5811 5807 5803 5800 5796 5793 5789 5786 5783 5781 5778 5776 5774 5772 5770 5768 5766 5764 5762 5761 5759 5758 5757 5756 5756 5755 5755 5754 5751 5748 5746 5745 5745 5744 5742
5854 5845 5836 5830 5825 5821 5817 5812 5808 5805 5801 5798 5794 5791 5788 5785 5782 5779 5777 5774 5772 5770 5768 5766 5764 5762 5761 5759 5758 5757 5756 5756 5755 5755 5756 5754 5751 5747 5745 5744 5743 5742 5741
5852 5843 5833 5828 5823 5818 5814 5810 5806 5803 5799 5796 5793 5789 5786 5783 5781 5778 5775 5773 5771 5769 5767 5764 5762 5761 5759 5758 5756 5755 5755 5755 5754 5756 5757 5755 5750 5747 5745 5743 5742 5741 5740
5852 5841 5831 5825 5820 5816 5811 5808 5804 5800 5797 5794 5791 5788 5785 5782 5779 5777 5774 5771 5769 5767 5765 5763 5761 5759 5758 5756 5755 5754 5754 5754 5754 5757 5757 5755 5751 5747 5745 5743 5741 5740 5739
5852 5840 5829 5823 5818 5813 5809 5805 5802 5798 5795 5792 5789 5786 5783 5780 5777 5775 5773 5770 5768 5765 5763 5761 5759 5757 5756 5755 5753 5752 5752 5752 5755 5757 5757 5755 5751 5748 5745 5742 5741 5739 5738
5852 5838 5828 5821 5816 5811 5806 5803 5799 5796 5792 5790 5787 5784 5781 5778 5776 5773 5771 5768 5766 5764 5762 5759 5757 5756 5754 5753 5752 5751 5750 5750 5751 5755 5757 5755 5752 5749 5746 5743 5741 5739 5738
5848 5837 5829 5822 5815 5810 5804 5800 5797 5793 5790 5787 5784 5781 5778 5775 5773 5771 5769 5767 5765 5762 5760 5758 5756 5754 5752 5751 5750 5749 5749 5748 5750 5753 5756 5756 5753 5750 5747 5744 5741 5739 5738
5842 5836 5830 5822 5815 5810 5805 5800 5795 5791 5787 5784 5781 5778 5775 5773 5772 5770 5768 5766 5763 5760 5758 5756 5754 5752 5751 5750 5749 5748 5747 5747 5750 5752 5756 5756 5753 5750 5748 5745 5742 5740 5738
5833 5832 5830 5822 5816 5812 5809 5801 5795 5791 5787 5782 5781 5777 5773 5772 5772 5772 5770 5765 5762 5759 5757 5754 5753 5750 5749 5749 5749 5747 5746 5747 5748 5752 5755 5755 5753 5751 5748 5745 5742 5740 5738
5830 5828 5826 5820 5815 5812 5808 5800 5796 5794 5789 5783 5780 5777 5774 5771 5769 5768 5767 5763 5759 5756 5755 5753 5751 5749 5749 5749 5750 5748 5747 5748 5749 5751 5754 5754 5753 5751 5748 5746 5743 5740 5738
5825 5822 5821 5817 5811 5807 5804 5800 5796 5793 5789 5784 5779 5775 5772 5768 5766 5765 5763 5759 5756 5754 5753 5752 5750 5750 5749 5749 5748 5748 5748 5748 5749 5750 5751 5752 5750 5750 5748 5746 5743 5741 5739
5818 5816 5814 5811 5805 5800 5795 5791 5790 5786 5784 5781 5776 5772 5769 5765 5761 5759 5758 5755 5752 5751 5750 5748 5749 5748 5747 5746 5746 5747 5747 5747 5747 5748 5749 5749 5748 5748 5748 5746 5744 5742 5740
5812 5809 5808 5804 5799 5793 5787 5783 5780 5779 5777 5774 5770 5766 5763 5761 5757 5753 5750 5748 5747 5746 5744 5744 5744 5743 5742 5742 5743 5744 5745 5746 5746 5746 5746 5747 5747 5747 5747 5746 5744 5742 5740
5804 5802 5799 5795 5792 5786 5780 5776 5773 5771 5769 5767 5764 5761 5757 5753 5750 5747 5744 5741 5740 5740 5739 5738 5739 5738 5737 5738 5740 5742 5744 5745 5745 5745 5746 5746 5746 5746 5746 5746 5745 5743 5741
5793 5790 5788 5787 5782 5776 5772 5768 5764 5762 5760 5758 5755 5753 5750 5747 5744 5741 5738 5736 5735 5735 5735 5733 5733 5732 5733 5734 5736 5740 5743 5744 5745 5746 5746 5747 5747 5747 5746 5746 5745 5744 5742
5781 5778 5775 5773 5770 5767 5764 5760 5757 5754 5751 5749 5747 5745 5743 5740 5737 5735 5733 5731 5730 5730 5729 5728 5729 5729 5728 5730 5733 5737 5740 5742 5743 5745 5746 5747 5748 5748 5747 5746 5745 5744 5743
5771 5769 5766 5763 5760 5758 5756 5752 5749 5747 5745 5743 5740 5737 5734 5732 5730 5729 5727 5726 5725 5724 5723 5723 5724 5725 5725 5727 5730 5735 5737 5740 5742 5743 5745 5747 5748 5747 5748 5748 5745 5744 5743
5762 5759 5756 5752 5750 5748 5744 5740 5738 5735 5735 5734 5733 5730 5727 5725 5724 5723 5722 5721 5720 5718 5718 5719 5720 5720 5720 5724 5722 5724 5731 5737 5738 5741 5743 5745 5747 5747 5748 5748 5747 5745 5745
5752 5750 5748 5745 5742 5739 5735 5733 5731 5729 5727 5727 5725 5723 5721 5719 5718 5718 5716 5715 5714 5713 5713 5713 5714 5714 5715 5718 5716 5714 5716 5722 5731 5739 5740 5741 5744 5746 5747 5748 5747 5746 5746
5745 5742 5740 5736 5733 5730 5728 5725 5723 5720 5719 5717 5715 5714 5713 5712 5711 5710 5709 5709 5709 5708 5707 5708 5708 5707 5707 5712 5714 5712 5709 5711 5720 5730 5736 5738 5740 5741 5743 5746 5746 5745 5745
5739 5737 5733 5729 5725 5722 5719 5715 5710 5707 5704 5705 5705 5705 5705 5704 5703 5702 5701 5702 5702 5702 5702 5702 5704 5704 5703 5702 5707 5712 5713 5714 5711 5714 5724 5732 5735 5735 5738 5741 5743 5743 5743
5735 5732 5728 5723 5719 5715 5710 5706 5702 5698 5696 5696 5695 5695 5695 5695 5695 5695 5693 5693 5692 5692 5694 5695 5697 5697 5698 5697 5698 5702 5705 5708 5711 5707 5708 5717 5724 5730 5733 5735 5738 5740 5741
5731 5727 5723 5717 5712 5708 5703 5698 5693 5688 5685 5683 5682 5682 5684 5685 5685 5685 5685 5683 5682 5682 5683 5685 5687 5688 5690 5692 5693 5696 5697 5699 5701 5704 5703 5707 5712 5721 5727 5730 5733 5735 5737